Grand Rapids, MI

2:02 AM EST on November 18, 2019 (GMT -0500)
Gerald R. Ford International

Weather History for KGRR - July, 2019

Change the Weather History Date:

Friday, July 26, 2019

  Actual Average Record
Temperature  
Mean Temperature 72 °F 72 °F  
Max Temperature 82 °F 82 °F 100 °F (1894)
Min Temperature 61 °F 62 °F 46 °F (1946)
Degree Days  
Heating Degree Days 0 0  
Month to date heating degree days 0  
Since 1 June heating degree days 45  
Since 1 July heating degree days 0  
Cooling Degree Days 6 8  
Month to date cooling degree days 205  
Year to date cooling degree days 397  
Since 1 June cooling degree days 350  
Growing Degree Days 22 (Base 50)    
Moisture  
Dew Point 60 °F    
Average Humidity 64    
Maximum Humidity 90    
Minimum Humidity 37    
Precipitation  
Precipitation 0.00 in 0.13 in 1.64 in (1960)
Month to date precipitation 3.18  
Year to date precipitation 20.53  
Snow  
Snow 0.00 in 0.00 in 0.00 in (2006)
Month to date snowfall 0.0  
Since 1 June snowfall 0.0  
Since 1 July snowfall 0.0  
Snow Depth -    
Sea Level Pressure  
Sea Level Pressure 30.20 in    
Wind  
Wind Speed 6 mph (South)    
Max Wind Speed 16 mph    
Max Gust Speed 23 mph    
Visibility 10 miles    
Events      
T = Trace of Precipitation, MM = Missing Value Source: NWS Daily Summary

Daily Weather History Graph

Daily Weather History Graph

Search for Another Location

Airport or City:

Astronomy

Jul. 26, 2019 Rise Set
Actual Time 6:26 AM EDT 9:09 PM EDT
Civil Twilight 5:54 AM EDT 9:42 PM EDT
Nautical Twilight 5:12 AM EDT 10:23 PM EDT
Astronomical Twilight 4:25 AM EDT 11:10 PM EDT
Moon 1:42 AM EDT (7/26) 3:52 PM EDT (7/26)
Length of Visible Light 15h 48m
Length of Day
14h 42m
Waning Crescent, 34% of the Moon is Illuminated
Jul 26
Waning Crescent
Jul 31
New
Aug 7
First Quarter
Aug 15
Full
Aug 23
Last Quarter

Hourly Weather History & Observations

Time (EDT) Temp. Heat Index Dew Point Humidity Pressure Visibility Wind Dir Wind Speed Gust Speed Precip Events Conditions
12:53 AM 66.0 °F - 57.9 °F 75% 30.19 in 10.0 mi Calm Calm - N/A   Clear
1:53 AM 64.0 °F - 59.0 °F 84% 30.20 in 10.0 mi Calm Calm - N/A   Clear
2:53 AM 62.1 °F - 57.9 °F 86% 30.19 in 10.0 mi SSE 4.6 mph - N/A   Clear
3:53 AM 62.1 °F - 59.0 °F 90% 30.19 in 9.0 mi South 5.8 mph - N/A   Clear
4:53 AM 62.1 °F - 59.0 °F 90% 30.19 in 10.0 mi SSE 5.8 mph - N/A   Clear
5:53 AM 62.1 °F - 57.9 °F 86% 30.20 in 10.0 mi South 6.9 mph - N/A   Partly Cloudy
6:53 AM 62.1 °F - 57.9 °F 86% 30.22 in 10.0 mi South 4.6 mph - N/A   Partly Cloudy
7:53 AM 64.9 °F - 60.1 °F 84% 30.22 in 10.0 mi SSE 5.8 mph - N/A   Partly Cloudy
8:53 AM 71.1 °F - 60.1 °F 68% 30.23 in 10.0 mi South 9.2 mph - N/A   Scattered Clouds
9:53 AM 75.0 °F - 60.1 °F 60% 30.25 in 10.0 mi SSW 8.1 mph - N/A   Mostly Cloudy
10:53 AM 79.0 °F - 60.1 °F 52% 30.24 in 10.0 mi SSW 10.4 mph - N/A   Mostly Cloudy
11:53 AM 81.0 °F 81.7 °F 61.0 °F 50% 30.24 in 10.0 mi SW 9.2 mph - N/A   Mostly Cloudy
12:53 PM 81.0 °F 81.7 °F 61.0 °F 50% 30.23 in 10.0 mi SW 9.2 mph - N/A   Mostly Cloudy
1:53 PM 82.9 °F 83.3 °F 61.0 °F 47% 30.22 in 10.0 mi South 16.1 mph 23.0 mph N/A   Mostly Cloudy
2:53 PM 82.0 °F 82.4 °F 60.1 °F 47% 30.20 in 10.0 mi SSW 13.8 mph - N/A   Mostly Cloudy
3:53 PM 80.1 °F 80.7 °F 59.0 °F 48% 30.20 in 10.0 mi SSW 9.2 mph 19.6 mph N/A   Mostly Cloudy
4:53 PM 82.0 °F 82.7 °F 61.0 °F 49% 30.18 in 10.0 mi SW 12.7 mph - N/A   Mostly Cloudy
5:53 PM 82.0 °F 83.0 °F 62.1 °F 51% 30.17 in 10.0 mi SSW 10.4 mph - N/A   Mostly Cloudy
6:53 PM 80.1 °F 80.9 °F 60.1 °F 50% 30.17 in 10.0 mi South 10.4 mph - N/A   Mostly Cloudy
7:53 PM 78.1 °F - 61.0 °F 56% 30.16 in 10.0 mi SSW 9.2 mph - N/A   Mostly Cloudy
8:53 PM 75.9 °F - 60.1 °F 58% 30.15 in 10.0 mi South 6.9 mph - N/A   Mostly Cloudy
9:53 PM 72.0 °F - 61.0 °F 68% 30.15 in 10.0 mi South 6.9 mph - N/A   Mostly Cloudy
10:53 PM 70.0 °F - 61.0 °F 73% 30.16 in 10.0 mi South 6.9 mph - N/A   Mostly Cloudy
11:53 PM 71.1 °F - 61.0 °F 70% 30.14 in 10.0 mi South 8.1 mph - N/A   Mostly Cloudy